Regional Weather Roundup
Issued by NWS Newport/Morehead, NC

Current Version | Previous Version | Graphics & Text | Print | Product List | Glossary Off
Versions: 1 2 3 4 5 6 7 8 9 10 11 12 13 14 15 16 17 18 19 20 21 22 23 24 25 26 27 28 29 30 31 32 33 34 35 36 37 38 39 40 41 42 43 44 45 46 47 48 49 50

000
ASUS42 KMHX 212210
RWRMHX
WEATHER ROUNDUP FOR EASTERN NORTH CAROLINA
NATIONAL WEATHER SERVICE NEWPORT/MOREHEAD CITY NC
500 PM EST FRI NOV 21 2014

NOTE: "FAIR" INDICATES FEW OR NO CLOUDS BELOW 12,000 FEET
WITH NO SIGNIFICANT WEATHER AND/OR OBSTRUCTIONS TO VISIBILITY

NCZ015>017-031-032-045>047-102-103-212300-
NORTH COAST

CITY           SKY/WX    TMP DP  RH WIND       PRES   REMARKS
EDENTON        CLEAR     41  14  32 N5        30.49R
ELIZABETH CITY CLEAR     42  16  34 N8        30.49R
KITTY HAWK     CLEAR     39  17  41 NW3       30.47R
MANTEO         CLEAR     40  17  40 N9G16     30.49R

$$

NCZ045>047-081-094-103-104-212300-
CENTRAL COAST

CITY           SKY/WX    TMP DP  RH WIND       PRES   REMARKS
FRISCO         CLEAR     40  22  48 N8G18     30.47R
SWANQUARTER      N/A     41 N/A N/A N3        30.44R

$$

NCZ095-097-098-100-101-212300-
SOUTHERN COAST

CITY           SKY/WX    TMP DP  RH WIND       PRES   REMARKS
BEAUFORT       CLEAR     44  20  38 N5        30.47R
CEDAR ISLAND     N/A     45 N/A N/A VRB10G20  30.50R
JACKSONVILLE   CLEAR     46  17  31 N9        30.46R
PINEY ISLAND   CLEAR     46  23  40 N10       30.46R
WILMINGTON     CLEAR     50  19  29 N3        30.44R


$$

NCZ011>013-027>030-043-044-078>080-089-090>093-098-212300-
COASTAL PLAIN

CITY           SKY/WX    TMP DP  RH WIND       PRES   REMARKS
AHOSKIE        CLEAR     39  10  29 N5        30.50R
CLINTON        CLEAR     48  17  29 N3        30.47R
ELIZABETHTOWN  CLEAR     52  15  22 CALM      30.44R
GOLDSBORO      CLEAR     45  10  24 N8        30.46R
GREENVILLE     CLEAR     41  14  33 N6        30.48R
HAVELOCK       CLEAR     46  17  31 N8        30.47R
KENANSVILLE    CLEAR     46  13  26 NE5       30.47R
KINSTON        CLEAR     43  12  28 N5        30.48R
NEW BERN       CLEAR     47  15  27 N9        30.47R
RICHLANDS      CLEAR     46  14  27 N3        30.47R
ROCKY MOUNT    CLEAR     42  11  28 N6        30.49R
WASHINGTON     CLEAR     42  13  31 N5        30.48R
WHITEVILLE     NOT AVBL

$$

AMZ130-135-150-152-154-156-158-170-250-252-270-ANZ085-086-088-633-658-670-212300-
MARINE OBSERVATIONS

STATION/POSITION TIME  TEMP    WIND        PRES    WAVE   SWELL
                       AIR SEA DIR/SP/G            HT/PER HT/PER
                 (UTC) (F)     (DEG/KT/KT) (MB)    (FT/S) (FT/S)
CHESAPEAKE LIGHT 2100   39     340/ 21/ 26 1032.1
64 E VA BEACH    2200   41 61  350/ 23/ 29 1030.8    9/ 8
DUCK             2200   41 55  330/ 17/ 19 1031.2
2 E DUCK         2200      56                N/A     5/ 7
10 NE DUCK       2200      58                N/A     6/ 7
OREGON INLET     2200   40 49  330/  9/ 13 1032.1
13E OREGON INLT  2200      63                N/A     7/ 7
HATTERAS CG      2200   44 52   10/ 16/ 19 1031.9
DIAMOND BUOY     2200   46     340/ 16/ 19 1031.5    5/ 6   2/11
17 S OCRACOKE    NOT AVBL
CAPE LOOKOUT     2200   45      20/ 13/ 16 1031.2
BEAUFORT LAB     2200   47 53   10/  7/ 13 1030.5
30 SE NEW RIVER  2100   53 69  350/ 14/ 17 1029.9
5 SE WRIGHTSVLE  2100   51 60   10/  8/ 12 1030.0
225 S CAPE HAT   2118   64 73  360/ 17/ 21 1028.0    5/ 7
41 SE CHARLESTON 2200   61 74   40/ 16/ 19 1028.9    4/ 5   2/ 8

$$


USA.gov is the U.S. government's official web portal to all federal, state and local government web resources and services.